Location: Observatory
(52.1446°N, 0.4624°W)
Time: 06:24:45
(UTC+00:00)

ISS - Pass Details

Date: 09 December 2017
Orbit: 403 x 407 km, 51.6° (Epoch: 12 December)

Event Time Altitude Azimuth Distance (km) Brightness Sun altitude
Rises 17:15:34 0° 272° (W) 2,331 1.4 -12.2°
Reaches altitude 10° 17:17:39 10° 271° (W) 1,470 0.2 -12.5°
Maximum altitude 17:20:57 82° 187° (S) 416 -3.8 -13.0°
Enters shadow 17:22:57 22° 98° (E) 950 -2.5 -13.3°
